Faribault, MN

3:58 PM CDT on April 23, 2017 (GMT -0500)
Faribault Municipal

Weather History for KFBL - November, 2013

Change the Weather History Date:

Friday, November 8, 2013

  Actual Average Record
Temperature  
Mean Temperature 37 °F -  
Max Temperature 48 °F 46 °F 78 °F (1999)
Min Temperature 26 °F 27 °F -10 °F (1991)
Degree Days  
Heating Degree Days 28    
Moisture  
Dew Point 26 °F    
Average Humidity 61    
Maximum Humidity 80    
Minimum Humidity 34    
Precipitation  
Precipitation 0.00 in - - ()
Sea Level Pressure  
Sea Level Pressure 29.93 in    
Wind  
Wind Speed 8 mph (SSE)    
Max Wind Speed 25 mph    
Max Gust Speed 37 mph    
Visibility 10 miles    
Events      
Averages and records for this station are not official NWS values.
T = Trace of Precipitation, MM = Missing Value Source: NWS Daily Summary

Daily Weather History Graph

Daily Weather History Graph

Search for Another Location

Airport or City:

Trip Planner

Search our weather history database for the weather conditions in past years. The results will help you decide how hot, cold, wet, or windy it might be!

Date:

Astronomy

Nov. 08, 2013 Rise Set
Actual Time 7:00 AM CST 4:53 PM CST
Civil Twilight 6:29 AM CST 5:24 PM CST
Nautical Twilight 5:54 AM CST 5:58 PM CST
Astronomical Twilight 5:20 AM CST 6:32 PM CST
Moon 11:56 AM CST (11/8) 10:15 PM CST (11/8)
Length of Visible Light 10h 54m
Length of Day
9h 53m
Waxing Crescent, 33% of the Moon is Illuminated
Nov 8
Waxing Crescent
Nov 9
First Quarter
Nov 17
Full
Nov 25
Last Quarter
Dec 2
New

Hourly Weather History & Observations

Time (CST) Temp. Windchill Dew Point Humidity Pressure Visibility Wind Dir Wind Speed Gust Speed Precip Events Conditions
12:01 AM 30.2 °F 26.7 °F 24.8 °F 80% 30.20 in 10.0 mi SSW 3.5 mph - N/A   Clear
12:21 AM 28.4 °F 24.6 °F 23.0 °F 80% 30.20 in 10.0 mi South 3.5 mph - N/A   Clear
12:41 AM 30.2 °F - 23.0 °F 75% 30.20 in 10.0 mi South 2.3 mph - N/A   Clear
1:01 AM 28.4 °F 24.6 °F 23.0 °F 80% 30.19 in 10.0 mi South 3.5 mph - N/A   Clear
1:21 AM 28.4 °F 24.6 °F 21.2 °F 74% 30.19 in 7.0 mi South 3.5 mph - N/A   Clear
1:41 AM 26.6 °F 20.0 °F 21.2 °F 80% 30.19 in 7.0 mi South 5.8 mph - N/A   Clear
2:01 AM 28.4 °F 23.3 °F 23.0 °F 80% 30.19 in 10.0 mi South 4.6 mph - N/A   Clear
2:21 AM 28.4 °F 24.6 °F 23.0 °F 80% 30.19 in 10.0 mi South 3.5 mph - N/A   Clear
2:41 AM 28.4 °F 24.6 °F 23.0 °F 80% 30.20 in 10.0 mi South 3.5 mph - N/A   Clear
3:01 AM 30.2 °F 26.7 °F 24.8 °F 80% 30.19 in 10.0 mi South 3.5 mph - N/A   Clear
3:21 AM 28.4 °F - 21.2 °F 74% 30.18 in 7.0 mi SSE 1.2 mph - N/A   Clear
3:41 AM 28.4 °F 23.3 °F 21.2 °F 74% 30.18 in 7.0 mi South 4.6 mph - N/A   Clear
4:01 AM 28.4 °F - 21.2 °F 74% 30.18 in 10.0 mi SSE 1.2 mph - N/A   Clear
4:21 AM 26.6 °F - 19.4 °F 74% 30.17 in 10.0 mi SE 2.3 mph - N/A   Clear
4:41 AM 26.6 °F 22.6 °F 21.2 °F 80% 30.17 in 7.0 mi SSE 3.5 mph - N/A   Clear
5:01 AM 26.6 °F - 21.2 °F 80% 30.16 in 7.0 mi SE 2.3 mph - N/A   Clear
5:21 AM 26.6 °F - 21.2 °F 80% 30.16 in 10.0 mi SSE 2.3 mph - N/A   Clear
5:41 AM 28.4 °F 24.6 °F 23.0 °F 80% 30.16 in 10.0 mi South 3.5 mph - N/A   Clear
6:01 AM 28.4 °F 24.6 °F 23.0 °F 80% 30.15 in 10.0 mi SE 3.5 mph - N/A   Clear
6:21 AM 30.2 °F 26.7 °F 23.0 °F 75% 30.15 in 10.0 mi SSE 3.5 mph - N/A   Clear
6:41 AM 30.2 °F 25.4 °F 23.0 °F 75% 30.14 in 10.0 mi SE 4.6 mph - N/A   Clear
7:01 AM 30.2 °F - 24.8 °F 80% 30.13 in 10.0 mi SSE 2.3 mph - N/A   Clear
7:21 AM 30.2 °F 25.4 °F 24.8 °F 80% 30.12 in 10.0 mi SE 4.6 mph - N/A   Clear
7:41 AM 32.0 °F 27.5 °F 24.8 °F 75% 30.11 in 10.0 mi SE 4.6 mph - N/A   Mostly Cloudy
8:01 AM 33.8 °F 27.7 °F 24.8 °F 70% 30.11 in 10.0 mi SE 6.9 mph - N/A   Overcast
8:21 AM 35.6 °F 32.8 °F 24.8 °F 65% 30.10 in 10.0 mi SE 3.5 mph - N/A   Overcast
8:41 AM 35.6 °F 32.8 °F 24.8 °F 65% 30.10 in 10.0 mi SE 3.5 mph - N/A   Mostly Cloudy
9:01 AM 37.4 °F 31.4 °F 24.8 °F 60% 30.09 in 10.0 mi SSE 8.1 mph - N/A   Scattered Clouds
9:21 AM 37.4 °F 31.4 °F 24.8 °F 60% 30.07 in 10.0 mi SE 8.1 mph - N/A   Scattered Clouds
9:41 AM 39.2 °F 32.0 °F 24.8 °F 56% 30.05 in 10.0 mi SE 11.5 mph - N/A   Scattered Clouds
10:01 AM 39.2 °F 31.6 °F 24.8 °F 56% 30.04 in 10.0 mi SE 12.7 mph 18.4 mph N/A   Scattered Clouds
10:21 AM 39.2 °F 30.8 °F 24.8 °F 56% 30.03 in 10.0 mi SE 15.0 mph - N/A   Scattered Clouds
10:41 AM 41.0 °F 32.5 °F 21.2 °F 45% 30.01 in 10.0 mi SE 17.3 mph 20.7 mph N/A   Mostly Cloudy
11:01 AM 41.0 °F 33.9 °F 23.0 °F 49% 30.00 in 10.0 mi SE 12.7 mph 18.4 mph N/A   Mostly Cloudy
11:21 AM 42.8 °F 36.2 °F 21.2 °F 42% 29.99 in 10.0 mi SE 12.7 mph 18.4 mph N/A   Scattered Clouds
11:41 AM 42.8 °F 35.4 °F 21.2 °F 42% 29.96 in 10.0 mi SE 15.0 mph 23.0 mph N/A   Scattered Clouds
12:01 PM 42.8 °F 34.8 °F 21.2 °F 42% 29.92 in 10.0 mi SE 17.3 mph 23.0 mph N/A   Clear
12:21 PM 44.6 °F 37.2 °F 21.2 °F 39% 29.90 in 10.0 mi SE 17.3 mph 24.2 mph N/A   Scattered Clouds
12:41 PM 44.6 °F 37.8 °F 21.2 °F 39% 29.88 in 10.0 mi SE 15.0 mph 24.2 mph N/A   Scattered Clouds
1:01 PM 44.6 °F 35.9 °F 21.2 °F 39% 29.86 in 10.0 mi SE 23.0 mph 27.6 mph N/A   Clear
1:21 PM 44.6 °F 35.9 °F 21.2 °F 39% 29.83 in 10.0 mi SE 23.0 mph 29.9 mph N/A   Clear
1:41 PM 44.6 °F 36.4 °F 21.2 °F 39% 29.80 in 10.0 mi SE 20.7 mph 36.8 mph N/A   Clear
2:01 PM 46.4 °F 38.3 °F 21.2 °F 37% 29.78 in 10.0 mi SE 23.0 mph 33.4 mph N/A   Clear
2:41 PM 46.4 °F 39.2 °F 19.4 °F 34% 29.76 in 10.0 mi SE 18.4 mph 35.7 mph N/A   Scattered Clouds
3:21 PM 46.4 °F 38.3 °F 21.2 °F 37% 29.75 in 10.0 mi SE 23.0 mph 32.2 mph N/A   Clear
3:41 PM 46.4 °F 39.8 °F 24.8 °F 43% 29.74 in 10.0 mi SSE 16.1 mph 31.1 mph N/A   Clear
4:01 PM 46.4 °F 38.3 °F 24.8 °F 43% 29.71 in 10.0 mi SE 23.0 mph 27.6 mph N/A   Scattered Clouds
4:21 PM 48.2 °F - 24.8 °F 40% 29.72 in 10.0 mi SSE 25.3 mph 32.2 mph N/A   Scattered Clouds
4:41 PM 48.2 °F - 24.8 °F 40% 29.73 in 10.0 mi SSE 21.9 mph 29.9 mph N/A   Mostly Cloudy
5:01 PM 48.2 °F - 24.8 °F 40% 29.72 in 10.0 mi SE 18.4 mph 29.9 mph N/A   Mostly Cloudy
5:21 PM 48.2 °F - 24.8 °F 40% 29.71 in 10.0 mi SSE 20.7 mph 28.8 mph N/A   Scattered Clouds
5:41 PM 48.2 °F - 26.6 °F 43% 29.71 in 10.0 mi SSE 15.0 mph 28.8 mph N/A   Clear
6:01 PM 48.2 °F - 26.6 °F 43% 29.70 in 10.0 mi SSE 18.4 mph 29.9 mph N/A   Clear
6:21 PM 46.4 °F 39.0 °F 26.6 °F 46% 29.69 in 10.0 mi SSE 19.6 mph 29.9 mph N/A   Clear
6:41 PM 46.4 °F 38.7 °F 26.6 °F 46% 29.68 in 10.0 mi SSE 20.7 mph 31.1 mph N/A   Scattered Clouds
7:01 PM 48.2 °F - 28.4 °F 46% 29.67 in 10.0 mi SSE 20.7 mph 31.1 mph N/A   Scattered Clouds
7:21 PM 48.2 °F - 28.4 °F 46% 29.66 in 10.0 mi SSE 17.3 mph 27.6 mph N/A   Scattered Clouds
7:41 PM 48.2 °F - 28.4 °F 46% 29.66 in 10.0 mi SSE 17.3 mph 28.8 mph N/A   Scattered Clouds
8:01 PM 46.4 °F 39.0 °F 30.2 °F 53% 29.65 in 10.0 mi SSE 19.6 mph 26.5 mph N/A   Mostly Cloudy
8:21 PM 46.4 °F 40.1 °F 33.8 °F 62% 29.66 in 10.0 mi South 15.0 mph 24.2 mph N/A   Overcast
8:41 PM 44.6 °F 37.2 °F 35.6 °F 71% 29.64 in 10.0 mi South 17.3 mph 21.9 mph N/A   Overcast
9:01 PM 44.6 °F 38.8 °F 35.6 °F 71% 29.65 in 10.0 mi South 11.5 mph 19.6 mph N/A   Mostly Cloudy
9:21 PM 46.4 °F 40.7 °F 35.6 °F 66% 29.64 in 10.0 mi South 12.7 mph 16.1 mph N/A   Mostly Cloudy
9:41 PM 46.4 °F 41.5 °F 37.4 °F 71% 29.64 in 10.0 mi South 10.4 mph - N/A   Scattered Clouds
10:01 PM 46.4 °F 41.9 °F 37.4 °F 71% 29.64 in 10.0 mi SW 9.2 mph - N/A   Mostly Cloudy
10:21 PM 48.2 °F - 39.2 °F 71% 29.65 in 10.0 mi SW 10.4 mph - N/A   Overcast
10:41 PM 48.2 °F - 39.2 °F 71% 29.65 in 10.0 mi SW 10.4 mph 18.4 mph N/A   Overcast
11:01 PM 48.2 °F - 39.2 °F 71% 29.65 in 10.0 mi SW 12.7 mph 17.3 mph N/A   Overcast
11:21 PM 48.2 °F - 39.2 °F 71% 29.65 in 10.0 mi SW 10.4 mph - N/A   Overcast
11:41 PM 48.2 °F - 39.2 °F 71% 29.65 in 10.0 mi SW 9.2 mph - N/A   Overcast